User: anonymous   Login
Location: Bishop�s Knoyle
(51.0728°N, 2.1714°W)
Time: 00:39:13
(UTC+00:00)
Language:

MOS 1 Rocket - Orbit

View from above orbital plane
View from above orbital plane
View from above satellite
View from above satellite

Ground track
Ground track

The orbit data is extracted from the following two-line orbital elements,

1 17528U 87018B   20336.55497582  .00000140  00000-0  40371-4 0  9990
2 17528  97.4005 166.0368 0150524 299.0335  59.5852 14.51013207783060
Epoch (UTC): 01 December 2020 13:19:09
Eccentricity: 0.0150524
inclination: 97.4005°
perigee height: 615 km
apogee height: 829 km
right ascension of ascending node: 166.0368°
argument of perigee: 299.0335°
revolutions per day: 14.51013207
mean anomaly at epoch: 59.5852°
orbit number at epoch: 78306

The dashed part of the orbit path shows where the satellite is in the earth's shadow,  

DLR